Stations météo

réclame
Mon MeteoGroup
Garmisch-Partenkirchen, Allemagne (10963): Température de l'air & dewpoint: 09.09.2019 12:00:00 - 15.09.2019 12:00:00 (CEST)Garmisch-Partenkirchen, Allemagne (10963): Température de l'air 5cm & Température de l'air -5cm: 09.09.2019 12:00:00 - 15.09.2019 12:00:00 (CEST)Garmisch-Partenkirchen, Allemagne (10963): Température de l'air -20cm & Température de l'air -100cm: 09.09.2019 12:00:00 - 15.09.2019 12:00:00 (CEST)Garmisch-Partenkirchen, Allemagne (10963): Vitesse du vent & gusts: 09.09.2019 12:00:00 - 15.09.2019 12:00:00 (CEST)Garmisch-Partenkirchen, Allemagne (10963): Direction du vent: 09.09.2019 12:00:00 - 15.09.2019 12:00:00 (CEST)Garmisch-Partenkirchen, Allemagne (10963): reduced air pressure: 09.09.2019 12:00:00 - 15.09.2019 12:00:00 (CEST)Garmisch-Partenkirchen, Allemagne (10963): visibility: 09.09.2019 12:00:00 - 15.09.2019 12:00:00 (CEST)Garmisch-Partenkirchen, Allemagne (10963): Ensoleillement: 09.09.2019 12:00:00 - 15.09.2019 12:00:00 (CEST)Garmisch-Partenkirchen, Allemagne (10963): Quantités de précipitations: 09.09.2019 12:00:00 - 15.09.2019 12:00:00 (CEST)
Date & Time tt [°C] td [°C] tt 5cm [°C] tt -5cm [°C] tt -20cm [°C] tt -100cm [°C] ff [km/h] ff [knt] fx [km/h] fx [knt] dd ppp [hPa] vv [km] sd [min] rr [mm]
15.09.2019 12:00:00 23,6 14,1 25,6 21,0 16,4 16,1 3 2 8 4 SE 1022,4 63 60 0,0
15.09.2019 11:00:00 21,5 14,2 23,2 17,6 16,0 16,1 4 2 10 5 SSE 1023,5 71 60 0,0
15.09.2019 10:00:00 18,9 13,8 16,4 14,3 16,0 16,1 3 2 9 5 S 1024,8 75 60 0,0
15.09.2019 09:00:00 14,4 13,9 12,7 13,5 16,3 16,1 0 0 7 4 N 1026,4 53 60 0,0
15.09.2019 08:00:00 10,8 10,7 9,4 13,4 16,6 16,1 4 2 7 4 WSW 1027,6 36 32 0,0
15.09.2019 07:00:00 9,6 9,3 7,7 13,7 16,9 16,1 3 2 6 3 W 1027,8 36 0 0,0
15.09.2019 06:00:00 9,9 9,7 8,6 14,2 17,3 16,1 4 2 6 3 WSW 1027,8 14 0 0,0
15.09.2019 05:00:00 10,4 10,1 8,8 14,7 17,6 16,1 2 1 11 6 WNW 1027,7 37 0 0,0
15.09.2019 04:00:00 10,5 10,2 9,9 15,2 18,0 16,1 6 3 9 5 SSW 1028,1 23 0 0,0
15.09.2019 03:00:00 11,1 10,8 10,3 15,7 18,4 16,1 4 2 10 6 SW 1028,6 10 0 0,0
15.09.2019 02:00:00 10,9 10,5 10,4 16,3 18,8 16,1 4 2 7 4 SSW 1029,0 21 0 0,0
15.09.2019 01:00:00 12,0 11,8 10,7 17,0 19,2 16,1 4 2 7 4 SW 1028,8 29 0 0,0
15.09.2019 00:00:00 12,4 12,0 11,5 17,7 19,6 16,1 2 1 4 2 W 1029,0 21 0 0,0
14.09.2019 23:00:00 13,4 12,9 12,1 18,6 20,0 16,1 2 1 6 4 SW 1028,7 37 0 0,0
14.09.2019 22:00:00 14,4 13,6 12,7 19,7 20,4 16,1 0 0 6 4 N 1028,3 51 0 0,0
14.09.2019 21:00:00 15,9 14,5 13,9 20,9 20,7 16,1 5 3 8 5 SW 1027,6 57 0 0,0
14.09.2019 20:00:00 18,0 15,2 17,1 22,3 20,9 16,0 3 2 15 8 WSW 1027,1 63 0 0,0
14.09.2019 19:00:00 19,9 14,7 19,1 23,4 21,0 16,0 5 3 21 11 E 1026,3 75 37 0,0
14.09.2019 18:00:00 21,3 14,8 21,5 24,5 20,9 16,0 10 5 31 17 NNE 1025,8 61 16 0,0
14.09.2019 17:00:00 21,6 14,6 22,4 26,2 20,4 16,0 13 7 35 19 NE 1025,5 75 45 0,0
14.09.2019 16:00:00 22,7 15,5 25,3 26,7 19,6 16,0 17 9 39 21 NE 1025,1 48 60 0,0
14.09.2019 15:00:00 22,6 15,7 25,7 26,1 18,7 16,0 16 9 34 18 NE 1025,3 46 60 0,0
14.09.2019 14:00:00 22,6 14,8 25,7 25,0 17,8 16,0 9 5 23 12 ENE 1025,7 73 60 0,0
14.09.2019 13:00:00 22,0 14,1 25,8 23,0 16,8 16,0 8 5 22 12 ENE 1026,8 64 60 0,0
14.09.2019 12:00:00 21,2 12,9 24,6 20,7 16,1 16,0 8 4 16 9 NE 1027,7 56 60 0,0
14.09.2019 11:00:00 19,5 12,5 22,2 17,4 15,7 16,0 4 2 8 4 SW 1028,4 55 60 0,0
14.09.2019 10:00:00 16,9 12,9 15,5 14,2 15,7 16,0 3 2 6 3 S 1030,0 75 60 0,0
14.09.2019 09:00:00 13,3 12,3 12,0 13,3 15,9 16,0 2 1 6 3 S 1031,3 59 60 0,0
14.09.2019 08:00:00 10,0 9,8 9,3 13,1 16,2 16,0 3 2 6 4 SSW 1032,1 31 33 0,0
14.09.2019 07:00:00 9,6 9,3 8,1 13,4 16,5 16,0 2 1 7 4 W 1031,9 40 0 0,0
14.09.2019 06:00:00 9,8 9,7 8,8 13,8 16,8 15,9 3 2 6 3 SW 1031,8 26 0 0,0
14.09.2019 05:00:00 10,5 10,4 8,5 14,2 17,2 15,9 5 3 9 5 SSW 1032,3 35 0 0,0
14.09.2019 04:00:00 10,3 10,0 8,6 14,7 17,5 15,9 3 2 9 5 WSW 1032,2 24 0 0,0
14.09.2019 03:00:00 10,8 10,5 10,0 15,3 17,9 15,9 4 2 8 4 SW 1032,4 21 0 0,0
14.09.2019 02:00:00 11,3 11,1 9,8 15,8 18,3 15,9 3 2 6 4 SW 1032,3 35 0 0,0
14.09.2019 01:00:00 11,6 11,3 10,9 16,5 18,7 15,9 4 2 6 4 SW 1032,4 27 0 0,0
14.09.2019 00:00:00 12,0 11,6 11,1 17,2 19,2 15,9 2 1 6 3 WSW 1032,5 26 0 0,0
13.09.2019 23:00:00 13,0 12,4 12,0 18,1 19,6 15,9 3 1 5 3 SW 1032,2 30 0 0,0
13.09.2019 22:00:00 14,1 13,5 12,9 19,1 20,0 15,9 3 1 6 4 WSW 1031,8 36 0 0,0
13.09.2019 21:00:00 15,4 14,2 13,9 20,3 20,4 15,9 3 2 5 3 WSW 1031,0 60 0 0,0
13.09.2019 20:00:00 17,3 14,6 15,0 21,8 20,7 15,9 3 2 13 7 NW 1030,0 55 0 0,0
13.09.2019 19:00:00 21,2 13,7 19,9 23,6 20,7 15,9 7 4 27 15 NE 1028,4 75 47 0,0
13.09.2019 18:00:00 22,3 13,5 21,9 25,0 20,5 15,9 10 5 24 13 NE 1028,0 75 60 0,0
13.09.2019 17:00:00 23,4 13,6 25,9 26,4 19,9 15,9 10 5 28 15 NNE 1027,6 75 60 0,0
13.09.2019 16:00:00 23,2 13,2 25,7 26,5 19,1 15,9 15 8 34 19 NE 1028,0 74 60 0,0
13.09.2019 15:00:00 23,2 12,8 26,0 26,0 18,2 15,8 14 8 29 16 NE 1028,3 58 60 0,0
13.09.2019 14:00:00 23,0 12,7 26,3 24,9 17,1 15,8 11 6 24 13 NE 1028,5 66 60 0,0
13.09.2019 13:00:00 23,3 11,5 25,7 22,8 16,0 15,8 5 3 11 6 ESE 1028,7 75 60 0,0
13.09.2019 12:00:00 22,0 11,5 24,4 19,9 15,2 15,8 3 2 8 4 SE 1029,7 73 60 0,0
13.09.2019 11:00:00 20,1 12,6 21,7 16,5 14,8 15,8 6 4 10 5 SSE 1030,6 75 60 0,0
13.09.2019 10:00:00 17,5 12,5 15,9 13,0 14,8 15,8 5 3 9 5 S 1031,6 75 60 0,0
13.09.2019 09:00:00 12,6 11,6 10,8 12,1 15,0 15,8 4 2 6 3 S 1033,3 59 60 0,0
13.09.2019 08:00:00 9,0 8,8 8,2 12,0 15,3 15,8 3 1 7 4 S 1034,6 23 35 0,0
13.09.2019 07:00:00 8,1 7,9 7,4 12,2 15,7 15,8 2 1 4 2 WSW 1035,0 25 0 0,0
13.09.2019 06:00:00 8,3 8,1 7,1 12,7 16,0 15,8 2 1 8 4 W 1034,5 30 0 0,0
13.09.2019 05:00:00 8,5 8,2 7,8 13,1 16,4 15,8 3 2 5 3 SW 1034,5 19 0 0,0
13.09.2019 04:00:00 8,7 8,4 8,0 13,6 16,8 15,8 3 2 6 3 SW 1034,3 22 0 0,0
13.09.2019 03:00:00 9,4 9,1 7,9 14,2 17,2 15,8 0 0 8 4 N 1034,2 18 0 0,0
13.09.2019 02:00:00 10,1 9,7 9,2 14,8 17,6 15,8 3 1 6 4 W 1034,0 24 0 0,0
13.09.2019 01:00:00 10,4 10,0 9,6 15,5 18,1 15,7 3 1 5 3 W 1034,0 26 0 0,0
13.09.2019 00:00:00 10,9 10,6 10,0 16,2 18,5 15,7 4 2 8 4 SSW 1033,9 26 0 0,0
12.09.2019 23:00:00 11,7 11,2 11,0 17,1 19,0 15,7 0 0 6 4 N 1033,3 30 0 0,0
12.09.2019 22:00:00 12,6 12,0 11,6 18,1 19,5 15,7 2 1 7 4 WSW 1032,9 39 0 0,0
12.09.2019 21:00:00 14,0 12,7 12,7 19,3 19,9 15,7 2 1 6 4 WSW 1032,1 52 0 0,0
12.09.2019 20:00:00 16,1 13,6 14,2 20,9 20,2 15,7 3 2 8 4 W 1030,7 62 0 0,0
12.09.2019 19:00:00 19,6 12,4 18,0 22,8 20,3 15,7 6 3 21 12 NE 1029,2 75 50 0,0
12.09.2019 18:00:00 21,0 12,3 20,9 24,3 20,1 15,7 10 5 26 14 NE 1028,2 61 60 0,0
12.09.2019 17:00:00 21,8 12,2 24,9 25,9 19,6 15,7 11 6 20 11 NNE 1028,1 75 60 0,0
12.09.2019 16:00:00 22,0 11,7 25,7 26,0 18,9 15,7 9 5 20 11 NE 1028,3 57 60 0,0
12.09.2019 15:00:00 21,6 11,5 25,4 25,4 18,0 15,7 11 6 22 12 NE 1028,8 75 59 0,0
12.09.2019 14:00:00 21,6 11,3 26,4 24,0 17,1 15,7 8 4 19 10 NE 1029,2 75 58 0,0
12.09.2019 13:00:00 20,8 11,3 22,9 22,1 16,3 15,7 5 3 16 9 ENE 1029,7 75 59 0,0
12.09.2019 12:00:00 19,9 10,2 22,5 19,3 15,7 15,7 3 1 - - E 1030,3 75 - 0,0
12.09.2019 11:00:00 - - - 17,2 15,5 15,7 - - - - - - 72 0 0,0
12.09.2019 10:00:00 15,0 11,7 14,9 15,7 15,3 15,7 4 2 9 5 SSW 1031,1 75 0 0,0
12.09.2019 09:00:00 13,5 11,2 13,6 14,6 15,4 15,7 4 2 10 5 S 1031,2 61 0 0,0
12.09.2019 08:00:00 12,1 11,2 11,9 14,1 15,5 15,7 3 2 10 5 WSW 1031,6 46 0 0,0
12.09.2019 07:00:00 11,8 11,2 11,4 14,2 15,6 15,7 3 2 5 3 WSW 1031,4 33 0 0,0
12.09.2019 06:00:00 11,7 11,0 11,4 14,3 15,8 15,7 3 2 6 3 SW 1030,8 34 0 0,0
12.09.2019 05:00:00 11,7 10,9 11,3 14,5 16,0 15,7 3 1 8 4 S 1030,5 34 0 0,0
12.09.2019 04:00:00 11,9 11,1 11,5 14,6 16,2 15,7 3 2 6 3 SSW 1030,4 42 0 0,0
12.09.2019 03:00:00 11,7 11,1 11,5 14,8 16,5 15,7 0 0 6 3 N 1030,0 42 0 0,0
12.09.2019 02:00:00 11,9 11,1 11,5 15,1 16,7 15,7 3 1 6 4 SW 1029,4 43 0 0,0
12.09.2019 01:00:00 12,1 11,3 11,8 15,4 17,0 15,7 4 2 9 5 SW 1029,0 31 0 0,0
12.09.2019 00:00:00 12,2 11,4 11,5 15,8 17,4 15,7 2 1 6 4 NNW 1028,8 43 0 0,0
11.09.2019 23:00:00 12,4 11,6 11,6 16,4 17,8 15,7 2 1 5 3 SW 1028,4 37 0 0,0
11.09.2019 22:00:00 12,7 11,7 12,3 17,1 18,2 15,7 2 1 6 4 SW 1027,7 34 0 0,0
11.09.2019 21:00:00 13,8 12,0 12,7 18,1 18,5 15,7 4 2 9 5 SSW 1026,7 52 0 0,0
11.09.2019 20:00:00 16,0 11,9 15,0 19,6 18,8 15,7 5 3 23 12 ESE 1024,9 65 0 0,0
11.09.2019 19:00:00 17,1 11,8 16,9 21,2 18,9 15,7 9 5 21 11 ENE 1023,6 66 27 0,0
11.09.2019 18:00:00 18,0 11,9 17,8 22,2 18,8 15,7 9 5 26 14 NE 1022,6 75 11 0,0
11.09.2019 17:00:00 18,8 12,0 20,3 24,2 18,4 15,7 10 6 30 16 NE 1021,5 70 40 0,0
11.09.2019 16:00:00 20,5 12,0 23,6 25,1 17,6 15,7 13 7 30 16 NE 1020,8 50 60 0,0
11.09.2019 15:00:00 19,9 11,8 23,7 24,7 16,7 15,7 10 5 27 15 NE 1021,1 75 60 0,0
11.09.2019 14:00:00 19,5 11,9 22,6 23,2 15,7 15,7 12 6 25 14 NE 1021,5 75 60 0,0
11.09.2019 13:00:00 18,5 11,8 21,8 21,1 14,8 15,7 12 6 24 13 NE 1021,7 38 60 0,0
11.09.2019 12:00:00 17,5 10,2 19,8 18,6 14,0 15,7 8 5 17 9 ENE 1021,9 75 60 0,0
11.09.2019 11:00:00 15,6 8,4 17,7 15,3 13,6 15,7 3 2 8 4 ENE 1022,7 75 50 0,0
11.09.2019 10:00:00 12,6 10,6 11,1 13,1 13,6 15,7 2 1 5 3 S 1023,6 46 2 0,0
11.09.2019 09:00:00 11,5 10,3 10,7 12,5 13,6 15,7 0 0 7 4 N 1023,5 44 6 0,0
11.09.2019 08:00:00 9,8 9,5 9,6 11,9 13,7 15,7 5 3 8 4 SSW 1023,7 26 0 0,0
11.09.2019 07:00:00 9,3 8,9 9,2 11,8 13,9 15,7 2 1 4 2 WSW 1023,2 40 0 0,0
11.09.2019 06:00:00 8,8 8,5 8,5 11,7 14,2 15,7 3 1 6 3 WSW 1022,6 36 0 0,0
11.09.2019 05:00:00 9,1 8,8 7,9 12,0 14,4 15,7 3 1 6 3 NNW 1021,6 57 0 0,0
11.09.2019 04:00:00 9,0 8,8 8,3 12,4 14,7 15,7 4 2 9 5 SW 1021,8 40 0 0,0
11.09.2019 03:00:00 9,4 9,0 8,0 12,9 15,0 15,8 3 2 6 3 SW 1021,7 40 0 0,0
11.09.2019 02:00:00 10,6 10,1 9,6 13,7 15,3 15,8 3 2 8 4 SW 1021,1 72 0 0,0
11.09.2019 01:00:00 10,9 10,3 10,5 14,2 15,6 15,8 2 1 5 3 SW 1020,6 57 0 0,0
11.09.2019 00:00:00 11,6 10,8 11,0 14,6 15,8 15,8 3 2 6 3 SW 1020,6 75 0 0,0
10.09.2019 23:00:00 12,1 11,0 11,5 15,2 16,1 15,8 3 2 7 4 WSW 1020,5 66 0 0,0
10.09.2019 22:00:00 12,7 11,2 12,1 15,8 16,4 15,8 4 2 6 4 WSW 1019,8 75 0 0,0
10.09.2019 21:00:00 13,4 10,9 12,4 16,4 16,7 15,8 0 0 5 3 N 1018,7 75 0 0,0
10.09.2019 20:00:00 14,6 11,4 13,5 17,3 17,0 15,8 3 2 17 9 N 1017,5 75 0 0,0
10.09.2019 19:00:00 16,5 10,3 15,3 19,1 17,1 15,8 9 5 23 13 NE 1016,2 74 53 0,0
10.09.2019 18:00:00 17,9 10,2 18,3 20,4 16,9 15,9 10 5 25 13 NE 1015,1 63 60 0,0
10.09.2019 17:00:00 18,4 11,0 20,4 22,2 16,5 15,9 13 7 26 14 NE 1014,3 72 60 0,0
10.09.2019 16:00:00 18,4 10,4 20,4 22,5 15,7 15,9 14 7 24 13 NE 1014,4 75 60 0,0
10.09.2019 15:00:00 18,2 9,6 20,4 22,2 14,8 15,9 13 7 28 15 NE 1014,4 65 59 0,0
10.09.2019 14:00:00 18,1 9,6 21,0 21,1 13,8 15,9 11 6 23 13 NE 1014,7 75 60 0,0
10.09.2019 13:00:00 16,8 8,9 19,4 19,2 12,7 15,9 10 6 23 12 NE 1015,1 68 60 0,0
10.09.2019 12:00:00 16,7 8,3 19,5 16,8 11,8 15,9 7 4 15 8 ENE 1015,1 69 60 0,0
10.09.2019 11:00:00 15,0 6,7 16,1 13,6 11,3 15,9 2 1 8 4 SE 1015,5 73 60 0,0
10.09.2019 10:00:00 12,2 7,7 11,0 10,4 11,1 16,0 3 2 9 5 S 1016,8 58 57 0,0
10.09.2019 09:00:00 8,9 7,5 7,9 9,1 11,1 16,0 2 1 10 5 E 1017,9 75 39 0,0
10.09.2019 08:00:00 6,1 5,9 6,1 8,2 11,3 16,0 4 2 9 5 SW 1018,6 54 31 0,0
10.09.2019 07:00:00 5,2 4,8 4,0 8,4 11,5 16,0 0 0 5 3 N 1018,4 60 0 0,0
10.09.2019 06:00:00 5,1 4,9 4,4 8,6 11,8 16,0 4 2 6 4 SSW 1017,7 44 0 0,0
10.09.2019 05:00:00 5,4 5,0 3,5 9,0 12,0 16,0 4 2 6 4 W 1017,9 47 0 0,0
10.09.2019 04:00:00 5,6 5,4 5,0 9,3 12,3 16,1 3 2 5 3 SW 1018,0 36 0 0,0
10.09.2019 03:00:00 5,6 5,3 5,1 9,6 12,6 16,1 2 1 4 2 SW 1018,0 24 0 0,0
10.09.2019 02:00:00 6,2 5,8 5,5 10,2 12,9 16,1 2 1 5 3 WSW 1018,2 32 0 0,0
10.09.2019 01:00:00 7,2 6,9 6,4 10,9 13,2 16,1 2 1 6 3 WSW 1017,9 43 0 0,0
10.09.2019 00:00:00 6,9 6,5 6,2 11,2 13,5 16,1 0 0 5 3 N 1018,2 19 0 0,0
09.09.2019 23:00:00 7,7 7,1 7,0 11,9 13,8 16,1 0 0 6 4 N 1017,7 31 0 0,0
09.09.2019 22:00:00 8,4 7,8 8,3 12,4 14,1 16,2 3 1 5 3 WSW 1017,5 29 0 0,0
09.09.2019 21:00:00 8,7 7,8 7,8 13,1 14,4 16,2 3 1 6 3 SW 1017,2 51 0 0,0
09.09.2019 20:00:00 9,8 8,0 8,8 14,2 14,6 16,2 2 1 11 6 NW 1016,3 62 0 0,0
09.09.2019 19:00:00 11,9 7,4 11,0 15,6 14,7 16,2 8 4 22 12 NE 1015,3 73 21 0,0
09.09.2019 18:00:00 12,9 6,9 12,7 17,2 14,5 16,2 9 5 21 12 NE 1014,9 75 51 0,0
09.09.2019 17:00:00 14,2 7,0 16,5 18,4 13,9 16,3 9 5 20 11 NE 1014,5 75 57 0,0
09.09.2019 16:00:00 14,1 6,5 17,1 17,6 13,3 16,3 10 5 20 11 NNE 1014,6 75 33 0,0
09.09.2019 15:00:00 12,9 6,9 14,0 17,0 12,7 16,3 6 3 20 11 NNE 1015,3 75 35 0,0
09.09.2019 14:00:00 12,7 7,7 15,0 14,8 12,1 16,3 6 4 16 9 ENE 1015,4 60 6 0,0
09.09.2019 13:00:00 12,7 8,7 14,4 13,7 11,6 16,3 6 3 15 8 S 1015,5 72 2 0,0
09.09.2019 12:00:00 10,6 7,5 10,4 12,7 11,3 16,4 4 2 11 6 SSE 1016,5 67 0 0,0

tt = Température de l'air
td = dewpoint
tt 5cm = Température de l'air 5cm
tt -5cm = Température de l'air -5cm
tt -20cm = Température de l'air -20cm
tt -100cm = Température de l'air -100cm
ff = Vitesse du vent
fx = gusts
dd = Direction du vent
ppp = reduced air pressure
vv = visibility
sd = Ensoleillement
rr = Quantités de précipitations

stations d'obs. à proximité